Hourly Data Report for October 02, 2015

All times are specified in Local Standard Time (LST). Add 1 hour to adjust for Daylight Saving Time where and when it is observed.

TORONTO INTL A
ONTARIO

43°40'36.000" N
79°37'50.000" W
173.40 m
6158731
71624
YYZ

Download Data

Hourly Data (October 2015)
Hourly Data Report for October 2, 2015
Temp Definition
°C
Dew Point Temp Definition
°C
Rel Hum Definition
%
Wind Dir Definition
10's deg

Wind Spd Definition
km/h
Visibility Definition
km
Stn Press Definition
kPa
Hmdx Definition


Wind Chill Definition


Weather Definition


TIME
00:00 Legend Double Dagger 7.5 -0.5 57 4 15 24.1 100.87     LegendNANA
01:00 Legend Double Dagger 6.7 -0.1 62 4 21 24.1 100.90     Mainly Clear
02:00 Legend Double Dagger 6.4 -0.1 63 4 15 24.1 100.88     LegendNANA
03:00 Legend Double Dagger 5.8 -0.1 66 4 19 24.1 100.89     LegendNANA
04:00 Legend Double Dagger 5.3 -0.1 68 3 20 24.1 100.89     Mostly Cloudy
05:00 Legend Double Dagger 5.4 -0.4 66 3 18 24.1 100.92     LegendNANA
06:00 Legend Double Dagger 5.1 -0.7 66 3 20 24.1 100.98     LegendNANA
07:00 Legend Double Dagger 5.6 -0.7 64 3 23 24.1 100.99     Mostly Cloudy
08:00 Legend Double Dagger 6.6 -0.4 61 4 21 24.1 101.03     LegendNANA
09:00 Legend Double Dagger 7.4 -0.3 58 4 27 24.1 101.05     LegendNANA
10:00 Legend Double Dagger 9.0 0.5 55 5 25 24.1 101.06     Mostly Cloudy
11:00 Legend Double Dagger 10.4 -0.7 46 5 25 24.1 101.03     LegendNANA
12:00 Legend Double Dagger 10.6 -1.1 44 4 23 24.1 101.00     LegendNANA
13:00 Legend Double Dagger 11.3 -0.8 43 4 24 24.1 100.95     Mostly Cloudy
14:00 Legend Double Dagger 11.3 -1.8 40 5 25 24.1 100.93     LegendNANA
15:00 Legend Double Dagger 12.0 -1.1 40 6 26 24.1 100.93     LegendNANA
16:00 Legend Double Dagger 11.4 -2.4 38 6 25 24.1 100.94     Mostly Cloudy
17:00 Legend Double Dagger 11.2 -2.6 38 7 21 24.1 100.98     LegendNANA
18:00 Legend Double Dagger 10.4 -3.3 38 6 25 24.1 101.02     LegendNANA
19:00 Legend Double Dagger 9.9 -3.1 40 5 28 24.1 101.02     Mostly Cloudy
20:00 Legend Double Dagger 9.2 -2.7 43 6 22 24.1 101.04     LegendNANA
21:00 Legend Double Dagger 9.0 -2.9 43 5 25 24.1 101.01     LegendNANA
22:00 Legend Double Dagger 8.6 -2.7 45 5 25 24.1 100.99     Cloudy
23:00 Legend Double Dagger 8.3 -2.3 47 5 21 24.1 100.98     LegendNANA

Notes on Data Quality.

Legend

  • E = Estimated
  • M = Missing
  • NA = Not Available
  • ‡ = Partner data that is not subject to review by the National Climate Archives
Date modified: